ATLAS CENTAUR R/B, 3598

Orbit data source: Space-Track

ATLAS CENTAUR R/B, 3598 is space debris in LEO originally from a launch on Sat, 07 Dec 1968 UTC launched from the Air Force Eastern Test Range (AFETR). Debris objects in space refer to the collection of defunct objects orbiting the Earth. Examples of debris include non-operational satellites, rocket bodies, and fragments generated from explosions, collisions, or faulty payload assembly.

Loading next visibility...
Identifier
3598, 1968-110B
Orbit
LEO
Last TLE update
6 hours ago
Origin
Manufacturer
GD/Convair
Mission
Spacecraft
Bus & Motor
CENTAUR D, Unknown motor
Mass
~1,700 kg wet, ~1,700 kg dry
Launch date (UTC)
1968-12-07 (57 years ago)
Launch vehicle
Unknown
Launch site
Air Force Eastern Test Range (AFETR)
Object type
Payload
Rocket body
Debris
Shape & HBR
Cyl, 9.1 m
Radar Cross Section
25.930 m², Large (>1 m²)

Expand to show TLE details & history

TLE from 6 hours ago
0 ATLAS CENTAUR R/B
1 03598U 68110B   25182.63170084  .00000306  00000-0  70282-4 0  9990
2 03598  34.9930 299.1734 0047589 310.2750  49.3789 14.57168414973461
Epoch: 2025-07-01T15:09Z
TLE epoch observation values (Epoch: 2025-07-01T15:09:38.952Z)
Latitude
-0.00003°
Longitude
151.83669°
Altitude
679.43 km
Speed
7.531 km/s
True Right ascension
19h 56m 41s
True Declination
0° 00' 00"
Sunlit
Object was in full shadow at epoch
Visualization orbit readout
Latitude
-16.66889°
Longitude
-4.37859°
Altitude
712.033 km
Speed
7.497 km/s
Apparent Right ascension
11h 20m 05s
Apparent Declination
-69° 44' 01"
Sunlit
Object is in daylight
Visualization observer readout
Local Sidereal Time
08:43:35
Azimuth
166.23° S
Elevation
-23.319°
Doppler factor
1
Orbital elements
Apogee altitude
739.199 km
Perigee altitude
671.779 km
Semi-major axis
7,083.626 km
Eccentricity
0.00476
Inclination
34.993°
RAAN
299.1734°
Arg. of periapsis
310.275°
True anomaly
Unknown
Mean anomaly
49.3789°
Eccentric anomaly
Unknown
Mean motion
3.64049 °/min
Orbital period
98.89 mins
BSTAR
0.000070282
Loading maneuver chart data...
Loading SW <> Apogee altitude chart data...
Loading historical data...
Loading historical data...
Loading historical data...
Loading historical data...
Loading historical data...
Loading historical data...
Loading historical data...
Other satellites on launch #110 in the year 1968 (1968-12-07 UTC)

ATLAS CENTAUR R/B Visibility forecast

Observer location: undefined°, undefined°

Span
Click to sort rows by Start time (UTC) header in descending order
Start Az.
Max El. time (UTC)
Max El. Az.
Max El.
End time (UTC)
End Az.
7 mins2025-07-02 11:06:23.531Z202.87° SW2025-07-02 11:09:23.531Z163.612° S20.724°2025-07-02 11:13:23.531Z108.118° ESE
8 mins2025-07-02 12:50:23.531Z235.337° WSW2025-07-02 12:53:23.531Z186.67° SSW34.199°2025-07-02 12:58:23.531Z101.297° ESE
8 mins2025-07-02 14:34:23.531Z254.118° W2025-07-02 14:38:23.531Z177.367° S35.621°2025-07-02 14:42:23.531Z117.439° SE
7 mins2025-07-02 16:19:23.531Z245.745° WSW2025-07-02 16:22:23.531Z199.133° SSW23.541°2025-07-02 16:26:23.531Z147.874° SSE
|